Location: New Plymouth
(39.0670°S, 174.0830°E)
Time: 22:28:48
(UTC+12:00)

Cosmos 1386 Rocket - Pass Details

Date: 24 January 2019
Orbit: 929 x 1006 km, 83.0° (Epoch: 21 April)

Event Time Altitude Azimuth Distance (km) Brightness Sun altitude
Exits shadow 23:08:55 34° 356° (N) 1,527 5.1 -22.4°
Maximum altitude 23:11:48 88° 84° (E) 968 4.4 -22.7°
Drops below altitude 10° 23:17:58 10° 173° (S) 2,689 7.4 -23.4°
Sets 23:20:27 0° 172° (S) 3,632 8.2 -23.7°
